Hourly Data Report for December 11, 2003

SHERBROOKE A
QUEBEC

45°26'00.000" N
71°41'00.000" W
241.40 m
7028124
71610
YSC

Download Data

Hourly Data (December 2003)
Hourly Data Report for December 11, 2003
TIME
LST
Temp Definition
°C
Dew Point Definition
°C
Rel Hum Definition
%
Precip. Amount Definition
mm

Wind Dir Definition
10's deg

Wind Spd Definition
km/h
Visibility Definition
km
Stn Press Definition
kPa
Hmdx Definition


Wind Chill Definition


Weather Definition


00:00 1.1 -2.3 78   15 11 15.0 98.38      
01:00 0.9 -2.2 80   13 7 15.0 98.32      
02:00 1.8 -2.0 76   10 9 15.0 98.29      
03:00 2.4 -1.2 77   14 22 15.0 98.22      
04:00 2.3 -0.6 81   11 13 15.0 98.12      
05:00 2.6 -0.1 82   10 11 15.0 97.96      
06:00 3.3 0.3 81   13 32 15.0 97.88      
07:00 3.1 0.4 82   13 9 15.0 97.87      
08:00 4.0 1.0 81   20 6 24.1 97.88     Cloudy
09:00 4.4 1.3 80   10 9 24.1 97.71     Cloudy
10:00 5.1 2.0 80   13 33 24.1 97.62     Cloudy
11:00 5.0 2.4 83   12 28 24.1 97.38     Cloudy
12:00 6.0 2.3 77   12 30 24.1 97.19     Cloudy
13:00 6.5 2.6 76   13 19 24.1 97.08     Cloudy
14:00 6.9 3.4 78   10 15 24.1 96.94     Rain
15:00 6.7 3.3 79   11 20 24.1 96.79     Cloudy
16:00 6.1 3.1 81   7 13 24.1 96.63     Cloudy
17:00 6.2 3.9 85   6 11 19.3 96.43     Rain
18:00 7.2 5.0 86   8 7 15.0 96.30     Rain
19:00 4.6 4.2 97     0 4.8 96.24     Rain
20:00 4.8 4.7 99   28 6 0.3 96.14     Rain
21:00 4.7 4.6 99     0 0.3 96.08     Rain
22:00 3.9 3.9 100   25 13 2.6 96.15     Rain
23:00 2.4 1.8 96   26 26 8.0 96.26     Rain

Notes on Data Quality.

Legend

  • E = Estimated
  • M = Missing
  • NA = Not Available*
  • [empty] = Indicates an unobserved value
Date modified: